CZ-6A DEB

Satellite information

Favourite Embed

Satellite Type and Status

DEBRISIN ORBIT

Key statistics

Satellite CZ-6A DEB at a glance.

Uptime

969

Days in orbit

Revolutions

≈ 14.2

Per day

Orbit

SSO

Sun Synchronous Orbit

Inclination

98.8

Latest

Satellite identification and parameters

Extended collection of information and parameters for CZ-6A DEB.

Object identification

Identified? True

Debris? True

Object name: CZ-6A DEB

International designator: 2022-151AFV

Object number (NORAD): 56645

Object ID (CCSDS): 56645

Country: PEOPLES REPUBLIC OF CHINA (PRC)

Current information (Y/N): Y

RCS size: SMALL

Orbital parameters

Period: 101.604 minutes

Inclination: 98.798 deg

SMA: 7212.737 km

Apoapsis: 862.997 km

Periapsis: 806.207 km

RAAN: 189.1226 deg

Eccentricy: 0.0039368

Argument of periapsis: 260.6437 deg

Mean anomaly: 99.0285 deg

Mean motion: 14.17270094 rev/day

Mean motion (dot): 0.00001296 rev/day2

B* drag term: 0.00065844 1/REarth

Two-line elements (TLE)

Creation date: July 3, 2025, 6:36 a.m.

Reference frame: TEME

Reference center: EARTH

Epoch: July 3, 2025, 5:42 a.m. UTC

TLE line 0: 0 CZ-6A DEB

TLE line 1: 1 56645U 22151AFV 25184.23782724 .00001296 00000-0 65844-3 0 9990

TLE line 2: 2 56645 98.7980 189.1226 0039368 260.6437 99.0285 14.17270094113480

Live tracking on map

Real-time ground track for satellite CZ-6A DEB.

In-orbit conjunctions

A list of the most updated potential collisions computed for object CZ-6A DEB.

Target Orbit TCA Probability of collision Miss distance Type
CZ-6A DEB LEO 2025-03-03 00:41:31 0.0002312899 177.0 (m) DEBRIS
MINOTAUR R/B SSO 2025-02-09 09:57:15 0.0001524741 520.0 (m) ROCKET BODY
FENGYUN 1C DEB SSO 2024-06-07 04:25:14 0.0001255336 73.0 (m) DEBRIS

Associated space launch

Chinese satellite reported for atmospheric/ocean/environmental/spatial parameter research purposes, details TBD.

CZ-6A DEB was lifted into orbit during the mission ‘Long March 6A | Yunhai 3’, on board a Long March 6A space rocket.

The launch took place on Nov. 11, 2022, 10:52 p.m. from Launch Complex 9A.

For more information about the launch, click the button.

Launch to space Long March 6A | Yunhai 3
Long March 6A | Yunhai 3

Agency: N/A

Status: Launch Successful

Launch date: Nov. 11, 2022, 10:52 p.m. UTC

Rocket: Long March 6A

Launch pad: Launch Complex 9A

Location: Taiyuan Satellite Launch Center, People's Republic of China

...

Latest news about this satellite

There are no fresh news available about this satellite. Check back as we update our databases every day.


Newsletter sign-up

Weekly statistics, charts and insights to help you stay on top of the space industry.